DW3800 Weather Reports


Display with metric or nautical units.
time (UTC)temp
F
wind
direction
speed
MPH
gust
MPH
rain 1hr
in
rain 24hr
in
rain mn
in
humidity
%
barometer
mb
20260904113248 72 116 0.0 0.0 0.00 0.00 0.00 99 1013.1
20260904112743 72 347 1.0 1.0 0.00 0.00 0.00 99 1013.3
20260904112239 72 106 0.0 0.0 0.00 0.00 0.00 99 1012.9
20260904111735 72 77 0.0 1.0 0.00 0.00 0.00 99 1013.0
20260904111230 72 107 0.0 1.0 0.00 0.00 0.00 99 1012.9
20260904110726 72 99 0.0 0.0 0.00 0.00 0.00 99 1013.1
20260904110225 72 103 0.0 0.0 0.00 0.00 0.00 99 1013.0
20260904105720 72 107 0.0 0.0 0.00 0.00 0.00 99 1013.0
20260904105215 72 99 0.0 0.0 0.00 0.00 0.00 99 1013.0
20260904104710 72 100 0.0 0.0 0.00 0.00 0.00 99 1012.8
20260904104206 72 119 0.0 0.0 0.00 0.00 0.00 99 1013.0
20260904103703 72 107 0.0 0.0 0.00 0.00 0.00 99 1013.1
20260904103157 73 33 1.0 1.0 0.00 0.00 0.00 99 1013.1
20260904102653 73 120 0.0 1.0 0.00 0.00 0.00 99 1013.1
20260904102148 73 310 1.0 3.0 0.00 0.00 0.00 99 1013.3
20260904101645 73 75 0.0 0.0 0.00 0.00 0.00 99 1013.2
20260904101140 73 103 0.0 0.0 0.00 0.00 0.00 99 1013.2
20260904100636 73 310 0.0 2.0 0.00 0.00 0.00 99 1013.3
20260904100131 73 354 1.0 2.0 0.00 0.00 0.00 99 1013.0
20260904095626 72 98 0.0 0.0 0.00 0.00 0.00 99 1012.9
20260904095126 73 100 0.0 0.0 0.00 0.00 0.00 99 1013.0
20260904094620 73 93 0.0 0.0 0.00 0.00 0.00 99 1012.9
20260904094115 73 100 0.0 0.0 0.00 0.00 0.00 99 1012.7
20260904093612 73 94 0.0 0.0 0.00 0.00 0.00 99 1013.0
20260904093107 73 99 0.0 0.0 0.00 0.00 0.00 99 1013.0
20260904092603 73 92 0.0 0.0 0.00 0.00 0.00 99 1013.0
20260904092059 73 103 0.0 0.0 0.00 0.00 0.00 99 1012.7
20260904091555 73 103 0.0 0.0 0.00 0.00 0.00 99 1012.7
20260904091054 73 95 0.0 0.0 0.00 0.00 0.00 99 1012.6
20260904090550 73 95 0.0 0.0 0.00 0.00 0.00 99 1012.6
20260904090045 73 97 0.0 0.0 0.00 0.00 0.00 99 1012.7
20260904085540 73 95 0.0 0.0 0.00 0.00 0.00 99 1012.6
20260904085039 73 95 0.0 0.0 0.00 0.00 0.00 99 1012.6
20260904084536 73 67 0.0 0.0 0.00 0.00 0.00 99 1012.6
20260904084032 73 101 0.0 0.0 0.00 0.00 0.00 98 1012.5
20260904083527 73 91 0.0 0.0 0.00 0.00 0.00 98 1012.3
20260904083023 73 93 0.0 0.0 0.00 0.00 0.00 98 1012.5
20260904082518 73 91 0.0 0.0 0.00 0.00 0.00 98 1012.6
20260904082013 74 77 0.0 0.0 0.00 0.00 0.00 98 1012.5
20260904081509 74 83 0.0 1.0 0.00 0.00 0.00 98 1012.5
20260904081004 74 95 0.0 0.0 0.00 0.00 0.00 98 1012.5
20260904080459 74 95 0.0 0.0 0.00 0.00 0.00 98 1012.5
20260904075955 74 95 0.0 0.0 0.00 0.00 0.00 97 1012.5
20260904075451 74 100 0.0 0.0 0.00 0.00 0.00 97 1012.4
20260904074950 74 100 0.0 0.0 0.00 0.00 0.00 97 1012.6
20260904074445 74 93 0.0 0.0 0.00 0.00 0.00 97 1012.4
20260904073940 74 97 0.0 0.0 0.00 0.00 0.00 97 1012.4
20260904073436 74 87 0.0 0.0 0.00 0.00 0.00 96 1012.5
20260904072931 74 81 0.0 0.0 0.00 0.00 0.00 96 1012.6
20260904072427 74 96 0.0 0.0 0.00 0.00 0.00 96 1012.7
20260904071921 74 92 0.0 0.0 0.00 0.00 0.00 96 1012.5
20260904071417 75 100 0.0 0.0 0.00 0.00 0.00 96 1012.7
20260904070912 75 102 0.0 2.0 0.00 0.00 0.00 96 1012.7
20260904070411 75 104 0.0 0.0 0.00 0.00 0.00 96 1012.6
20260904065910 75 101 0.0 1.0 0.00 0.00 0.00 95 1012.6
20260904065407 75 100 0.0 0.0 0.00 0.00 0.00 95 1012.8
20260904064906 75 97 0.0 1.0 0.00 0.00 0.00 95 1012.6
20260904064403 75 89 0.0 3.0 0.00 0.00 0.00 95 1012.8
20260904063858 75 98 0.0 1.0 0.00 0.00 0.00 95 1012.8
20260904063355 75 101 1.0 2.0 0.00 0.00 0.00 95 1012.8
20260904062849 75 115 0.0 0.0 0.00 0.00 0.00 95 1012.7
20260904062345 75 122 0.0 1.0 0.00 0.00 0.00 95 1012.8
20260904061841 75 109 0.0 2.0 0.00 0.00 0.00 94 1012.6
20260904061337 75 106 0.0 1.0 0.00 0.00 0.00 94 1012.8
20260904060833 75 114 0.0 1.0 0.00 0.00 0.00 94 1012.7
20260904060329 75 104 0.0 0.0 0.00 0.00 0.00 94 1012.9
20260904055824 76 108 0.0 0.0 0.00 0.00 0.00 94 1012.8
20260904055319 76 106 0.0 1.0 0.00 0.00 0.00 93 1012.8
20260904054815 76 114 0.0 1.0 0.00 0.00 0.00 93 1012.7
20260904054310 76 104 0.0 0.0 0.00 0.00 0.00 93 1012.8
20260904053800 76 107 1.0 2.0 0.00 0.00 0.00 93 1012.7
20260904053300 76 99 0.0 1.0 0.00 0.00 0.00 92 1012.9
20260904052756 76 120 0.0 3.0 0.00 0.00 0.00 92 1012.9
20260904052252 76 111 1.0 2.0 0.00 0.00 0.00 92 1012.8
20260904051748 76 99 1.0 2.0 0.00 0.00 0.00 92 1012.5
20260904051243 76 161 1.0 5.0 0.00 0.00 0.00 92 1012.6
20260904050738 76 125 1.0 3.0 0.00 0.00 0.00 92 1012.5
20260904050235 77 88 0.0 6.0 0.00 0.00 0.00 91 1012.5
20260904045735 77 116 1.0 5.0 0.00 0.04 0.04 91 1012.6
20260904045230 77 95 3.0 3.0 0.00 0.04 0.04 91 1012.3
20260904044724 77 79 2.0 5.0 0.00 0.04 0.04 91 1012.8
20260904044221 77 127 0.0 2.0 0.00 0.04 0.04 91 1012.5
20260904043717 77 70 1.0 5.0 0.00 0.04 0.04 91 1012.5
20260904043213 77 152 2.0 6.0 0.00 0.04 0.04 91 1012.6
20260904042708 77 112 0.0 5.0 0.00 0.04 0.04 91 1012.6
20260904042205 77 90 0.0 3.0 0.00 0.04 0.04 90 1012.5
20260904041658 77 106 0.0 6.0 0.00 0.04 0.04 90 1012.4
20260904041155 77 86 1.0 1.0 0.00 0.04 0.04 90 1012.7
20260904040651 77 109 0.0 3.0 0.00 0.04 0.04 90 1012.6
20260904040146 77 93 0.0 5.0 0.00 0.04 0.04 90 1012.5
20260904035642 77 82 1.0 2.0 0.00 0.04 0.04 90 1012.4
20260904035137 77 165 1.0 3.0 0.00 0.04 0.04 90 1012.6
20260904034636 77 124 1.0 3.0 0.00 0.04 0.04 90 1012.5
20260904034132 77 121 1.0 2.0 0.00 0.04 0.04 90 1012.7
20260904033627 77 102 0.0 3.0 0.00 0.04 0.04 90 1012.6
20260904033125 77 116 2.0 3.0 0.00 0.04 0.04 89 1012.5
20260904032620 77 99 2.0 3.0 0.00 0.04 0.04 89 1012.3
20260904032119 77 99 0.0 2.0 0.00 0.04 0.04 89 1012.7
20260904031618 77 117 0.0 2.0 0.00 0.04 0.04 89 1012.6
20260904031114 77 116 0.0 6.0 0.00 0.04 0.04 89 1012.7
20260904030610 77 125 1.0 3.0 0.00 0.04 0.04 88 1012.8
20260904030105 77 53 1.0 2.0 0.00 0.04 0.04 88 1012.8
20260904025601 77 113 0.0 3.0 0.00 0.04 0.04 87 1012.9
20260904025056 77 45 0.0 1.0 0.00 0.04 0.04 87 1013.0
20260904024551 77 265 0.0 7.0 0.00 0.04 0.04 87 1012.7
20260904024047 78 104 0.0 2.0 0.00 0.04 0.04 86 1012.8
20260904023543 78 87 1.0 2.0 0.00 0.04 0.04 86 1013.0
20260904023039 78 35 2.0 2.0 0.00 0.04 0.04 86 1012.7
20260904022539 78 97 0.0 2.0 0.00 0.04 0.04 85 1012.8
20260904022036 78 72 1.0 1.0 0.00 0.04 0.04 85 1012.6
20260904021531 78 108 1.0 3.0 0.00 0.04 0.04 84 1012.9
20260904021026 78 85 0.0 3.0 0.00 0.04 0.04 84 1012.8
20260904020526 79 103 0.0 1.0 0.00 0.04 0.04 83 1012.5
20260904020021 79 101 0.0 1.0 0.00 0.04 0.04 83 1012.5
20260904015515 79 84 2.0 2.0 0.00 0.04 0.04 82 1012.5
20260904015014 79 88 0.0 2.0 0.00 0.04 0.04 82 1012.8
20260904014509 80 80 0.0 2.0 0.00 0.04 0.04 81 1012.7
20260904014004 80 100 0.0 1.0 0.00 0.04 0.04 81 1012.6
20260904013501 80 92 0.0 2.0 0.00 0.04 0.04 81 1012.4
20260904012957 80 110 0.0 6.0 0.00 0.04 0.04 80 1012.6
20260904012456 80 91 1.0 3.0 0.00 0.04 0.04 80 1012.3
20260904011950 80 114 0.0 3.0 0.00 0.04 0.04 79 1012.3
20260904011445 80 101 1.0 3.0 0.00 0.04 0.04 79 1012.3
20260904010941 80 89 0.0 5.0 0.00 0.04 0.04 79 1012.2
20260904010437 80 179 2.0 2.0 0.00 0.04 0.04 78 1012.0
20260904005931 80 118 0.0 5.0 0.00 0.04 0.04 78 1012.0
20260904005422 81 112 0.0 3.0 0.00 0.04 0.04 77 1012.0
20260904004921 81 168 2.0 3.0 0.00 0.04 0.04 77 1012.0
20260904004419 81 129 4.0 6.0 0.00 0.04 0.04 77 1012.0
20260904003919 81 111 0.0 6.0 0.00 0.04 0.04 76 1012.2
20260904003414 82 199 1.0 7.0 0.00 0.04 0.04 75 1012.0
20260904002909 82 154 0.0 7.0 0.00 0.04 0.04 75 1012.2
20260904002406 82 110 0.0 8.0 0.00 0.04 0.04 74 1012.0
20260904001904 82 120 0.0 1.0 0.00 0.04 0.04 74 1012.2
20260904001401 83 142 4.0 6.0 0.00 0.04 0.04 73 1012.1
20260904000855 83 123 1.0 8.0 0.00 0.04 0.04 73 1012.2
20260904000355 83 106 3.0 7.0 0.00 0.04 0.04 73 1012.2
20260903235855 83 99 1.0 6.0 0.00 0.04 0.04 73 1012.2
20260903235351 83 152 4.0 7.0 0.00 0.04 0.04 72 1012.2
20260903234850 83 136 0.0 8.0 0.00 0.04 0.04 72 1011.8
20260903234346 83 75 3.0 7.0 0.00 0.04 0.04 71 1012.2
20260903233842 84 123 2.0 6.0 0.00 0.04 0.04 71 1011.8
20260903233338 83 146 2.0 2.0 0.00 0.04 0.04 71 1011.7
20260903232837 84 124 1.0 2.0 0.00 0.04 0.04 72 1011.6
20260903232333 84 91 1.0 2.0 0.00 0.04 0.04 72 1011.7
20260903231832 84 108 1.0 2.0 0.00 0.04 0.04 72 1011.5
20260903231327 84 107 1.0 2.0 0.00 0.04 0.04 71 1011.4
20260903230823 84 115 3.0 5.0 0.00 0.04 0.04 71 1011.3
20260903230318 84 92 3.0 5.0 0.00 0.04 0.04 71 1011.3
20260903225814 84 72 6.0 10.0 0.00 0.04 0.04 71 1011.4
20260903225310 84 57 2.0 7.0 0.00 0.04 0.04 70 1011.5
20260903224806 84 97 4.0 6.0 0.00 0.04 0.04 70 1011.3
20260903224302 84 72 0.0 10.0 0.00 0.04 0.04 70 1011.4
20260903223757 84 154 4.0 8.0 0.00 0.04 0.04 69 1011.5
20260903223256 84 33 2.0 13.0 0.00 0.04 0.04 69 1011.6
20260903222751 84 135 0.0 2.0 0.00 0.04 0.04 69 1011.5
20260903222250 84 83 1.0 6.0 0.00 0.04 0.04 69 1011.3
20260903221745 84 146 2.0 3.0 0.00 0.04 0.04 69 1011.6
20260903221243 84 182 2.0 11.0 0.00 0.04 0.04 68 1011.2
20260903220742 84 222 1.0 3.0 0.00 0.04 0.04 69 1011.4
20260903220237 84 190 8.0 14.0 0.00 0.04 0.04 69 1011.4
20260903215730 84 120 3.0 5.0 0.00 0.04 0.04 69 1011.6
20260903215226 83 182 3.0 7.0 0.00 0.04 0.04 71 1011.6
20260903214724 84 119 1.0 6.0 0.00 0.04 0.04 72 1011.6
20260903214221 84 98 2.0 5.0 0.00 0.04 0.04 72 1011.7
20260903213714 83 117 1.0 2.0 0.00 0.04 0.04 72 1011.7
20260903213211 83 80 3.0 9.0 0.00 0.04 0.04 72 1011.8
20260903212706 83 149 3.0 8.0 0.00 0.04 0.04 72 1011.7
20260903212202 83 161 1.0 13.0 0.00 0.04 0.04 72 1011.3
20260903211655 83 97 0.0 13.0 0.00 0.04 0.04 72 1012.0
20260903211153 83 113 4.0 6.0 0.00 0.04 0.04 70 1012.4
20260903210648 83 123 1.0 6.0 0.00 0.04 0.04 72 1012.6
20260903210143 83 126 1.0 7.0 0.00 0.04 0.04 73 1012.6
20260903205643 84 101 1.0 8.0 0.00 0.04 0.04 72 1012.6
20260903205136 84 109 3.0 5.0 0.00 0.04 0.04 71 1012.4
20260903204632 85 103 1.0 3.0 0.00 0.04 0.04 70 1012.1
20260903204128 85 144 1.0 3.0 0.00 0.04 0.04 69 1012.5
20260903203623 85 156 1.0 6.0 0.00 0.04 0.04 71 1012.4
20260903203118 84 129 4.0 8.0 0.00 0.04 0.04 72 1012.2
20260903202613 84 199 1.0 9.0 0.00 0.04 0.04 73 1012.3
20260903202109 84 102 1.0 8.0 0.00 0.04 0.04 73 1012.4
20260903201603 84 158 4.0 6.0 0.00 0.04 0.04 73 1012.6
20260903201102 84 151 3.0 11.0 0.00 0.04 0.04 73 1012.2
20260903200552 84 81 4.0 7.0 0.00 0.04 0.04 73 1012.3
20260903200047 84 153 2.0 5.0 0.00 0.04 0.04 73 1012.5
20260903195543 83 97 3.0 5.0 0.00 0.04 0.04 75 1012.5
20260903195038 82 180 5.0 7.0 0.00 0.04 0.04 76 1012.5
20260903194533 81 192 4.0 5.0 0.00 0.04 0.04 79 1012.7
20260903194028 79 100 3.0 8.0 0.00 0.04 0.04 82 1012.8
20260903193525 78 111 2.0 6.0 0.00 0.04 0.04 84 1012.6
20260903193019 77 85 0.0 2.0 0.00 0.04 0.04 86 1012.8
20260903192517 76 121 3.0 5.0 0.00 0.04 0.04 88 1012.8
20260903192016 76 116 0.0 2.0 0.00 0.04 0.04 89 1013.2
20260903191513 76 61 0.0 1.0 0.07 0.04 0.04 89 1013.5
20260903191007 76 152 0.0 3.0 0.19 0.04 0.04 87 1013.7
20260903190507 77 149 0.0 1.0 0.12 0.03 0.03 87 1013.5
20260903190001 77 131 0.0 3.0 0.00 0.01 0.01 86 1013.3
20260903185456 77 15 3.0 5.0 0.00 0.01 0.01 88 1013.1
20260903184950 77 156 0.0 2.0 0.00 0.01 0.01 88 1013.2
20260903184447 77 139 0.0 1.0 0.05 0.01 0.01 88 1013.3
20260903183942 77 140 0.0 0.0 0.00 0.00 0.00 85 1013.6
20260903183436 77 168 1.0 2.0 0.00 0.00 0.00 82 1013.6
20260903182936 78 21 1.0 1.0 0.00 0.00 0.00 81 1013.6
20260903182434 78 95 1.0 3.0 0.00 0.00 0.00 80 1013.3
20260903181930 78 128 1.0 2.0 0.00 0.00 0.00 79 1013.6
20260903181425 78 124 0.0 0.0 0.00 0.00 0.00 79 1013.4
20260903180924 78 103 1.0 1.0 0.00 0.00 0.00 78 1013.4
20260903180419 78 324 1.0 1.0 0.00 0.00 0.00 78 1013.0
20260903175919 78 156 0.0 2.0 0.00 0.00 0.00 79 1013.2
20260903175413 78 131 0.0 2.0 0.00 0.00 0.00 79 1013.4
20260903174908 78 52 0.0 7.0 0.00 0.00 0.00 79 1013.2
20260903174403 79 105 1.0 2.0 0.00 0.00 0.00 78 1013.1
20260903173903 79 132 0.0 1.0 0.00 0.00 0.00 78 1013.5
20260903173357 79 76 2.0 3.0 0.00 0.00 0.00 78 1013.5
20260903172853 77 81 2.0 5.0 0.00 0.00 0.00 81 1013.8
20260903172348 77 121 3.0 9.0 0.00 0.00 0.00 81 1014.0
20260903171843 77 117 3.0 10.0 0.00 0.00 0.00 80 1014.1
20260903171339 77 115 2.0 5.0 0.00 0.00 0.00 79 1014.1
20260903170838 78 90 0.0 5.0 0.00 0.00 0.00 79 1014.1
20260903170333 79 77 3.0 5.0 0.00 0.00 0.00 77 1014.0
20260903165831 79 93 1.0 1.0 0.00 0.00 0.00 75 1013.9
20260903165331 79 108 1.0 5.0 0.00 0.00 0.00 74 1014.0
20260903164826 79 106 1.0 3.0 0.00 0.00 0.00 73 1014.0
20260903164321 80 127 0.0 5.0 0.00 0.00 0.00 72 1013.9
20260903163820 81 131 2.0 5.0 0.00 0.00 0.00 69 1014.1
20260903163317 80 124 0.0 3.0 0.00 0.00 0.00 71 1014.0
20260903162813 79 125 1.0 6.0 0.00 0.00 0.00 73 1013.9
20260903162309 80 141 2.0 5.0 0.00 0.00 0.00 73 1013.7
20260903161805 79 107 0.0 3.0 0.00 0.00 0.00 75 1013.8
20260903161300 79 126 3.0 5.0 0.00 0.00 0.00 75 1013.9
20260903160755 80 14 6.0 9.0 0.00 0.00 0.00 74 1013.6
20260903160255 78 174 1.0 2.0 0.00 0.00 0.00 77 1013.6
20260903155753 78 99 3.0 7.0 0.00 0.00 0.00 78 1013.4
20260903155248 78 122 1.0 9.0 0.00 0.00 0.00 79 1013.5
20260903154744 77 152 1.0 6.0 0.00 0.00 0.00 80 1013.9
20260903154240 76 178 1.0 2.0 0.00 0.00 0.00 80 1014.2
20260903153735 76 135 4.0 5.0 0.00 0.00 0.00 80 1014.4
20260903153231 76 116 3.0 3.0 0.00 0.00 0.00 80 1014.0
20260903152727 77 121 2.0 3.0 0.00 0.00 0.00 79 1014.0
20260903152223 77 25 3.0 7.0 0.00 0.00 0.00 79 1013.9
20260903151722 77 73 1.0 3.0 0.00 0.00 0.00 79 1013.7
20260903151218 77 122 1.0 5.0 0.00 0.00 0.00 78 1013.9
20260903150713 77 112 0.0 3.0 0.00 0.00 0.00 79 1013.9
20260903150208 77 149 0.0 5.0 0.00 0.00 0.00 80 1014.0
20260903145708 77 98 1.0 3.0 0.00 0.00 0.00 80 1013.9
20260903145203 77 117 3.0 3.0 0.00 0.00 0.00 80 1013.8
20260903144702 77 87 3.0 5.0 0.00 0.00 0.00 79 1013.9
20260903144157 76 152 0.0 1.0 0.00 0.00 0.00 81 1013.8
20260903143653 76 109 0.0 1.0 0.00 0.00 0.00 80 1013.9
20260903143149 77 95 1.0 1.0 0.00 0.00 0.00 80 1013.8
20260903142645 77 138 3.0 5.0 0.00 0.00 0.00 79 1013.8
20260903142141 78 98 0.0 3.0 0.00 0.00 0.00 79 1013.7
20260903141636 78 75 0.0 1.0 0.00 0.00 0.00 79 1013.8
20260903141131 77 100 1.0 2.0 0.00 0.00 0.00 79 1013.8
20260903140627 76 82 0.0 5.0 0.00 0.00 0.00 81 1013.7
20260903140122 76 117 5.0 7.0 0.00 0.00 0.00 81 1014.0
20260903135619 75 89 2.0 5.0 0.00 0.00 0.00 82 1013.9
20260903135118 75 97 1.0 5.0 0.00 0.00 0.00 84 1013.8
20260903134617 75 106 2.0 3.0 0.00 0.00 0.00 83 1013.6
20260903134113 75 63 1.0 1.0 0.00 0.00 0.00 84 1014.0
20260903133611 74 131 0.0 1.0 0.00 0.00 0.00 85 1014.1
20260903133107 73 117 0.0 2.0 0.00 0.00 0.00 86 1014.0
20260903132602 73 95 1.0 3.0 0.00 0.00 0.00 87 1014.0
20260903132102 73 148 0.0 1.0 0.00 0.00 0.00 87 1013.9
20260903131556 73 176 2.0 3.0 0.00 0.00 0.00 87 1013.9
20260903131055 73 114 0.0 7.0 0.00 0.00 0.00 87 1013.7
20260903130550 73 336 1.0 3.0 0.00 0.00 0.00 87 1014.0
20260903130045 73 193 1.0 1.0 0.00 0.00 0.00 87 1013.9
20260903125543 73 109 0.0 5.0 0.00 0.00 0.00 87 1013.9
20260903125039 73 76 3.0 5.0 0.00 0.00 0.00 87 1014.0
20260903124538 73 155 1.0 2.0 0.00 0.00 0.00 87 1013.7
20260903124033 73 107 1.0 3.0 0.00 0.00 0.00 87 1013.8
20260903123532 73 133 0.0 6.0 0.00 0.00 0.00 87 1013.5
20260903123031 73 123 1.0 5.0 0.00 0.00 0.00 87 1013.7
20260903122530 73 114 0.0 3.0 0.00 0.00 0.00 88 1013.6
20260903122025 72 187 4.0 7.0 0.00 0.00 0.00 88 1013.8
20260903121520 73 187 3.0 6.0 0.00 0.00 0.00 90 1014.0
20260903121016 73 111 2.0 8.0 0.00 0.00 0.00 89 1014.5
20260903120514 74 158 3.0 9.0 0.00 0.00 0.00 87 1014.2
20260903120009 74 196 5.0 7.0 0.00 0.00 0.00 89 1014.0
20260903115507 74 132 2.0 6.0 0.00 0.00 0.00 89 1014.2
20260903115002 74 109 3.0 6.0 0.00 0.00 0.00 89 1013.9
20260903114457 73 155 4.0 6.0 0.00 0.00 0.00 90 1014.0
20260903113953 73 135 2.0 3.0 0.00 0.00 0.00 92 1013.6
20260903113448 73 235 2.0 3.0 0.00 0.00 0.00 93 1013.8